LRCK Weather Reports


Display with metric or nautical units.
time (UTC)temp
F
wind
direction
speed
MPH
gust
MPH
rain 1hr
in
rain 24hr
in
rain mn
in
humidity
%
barometer
mb
20260505181817 48 160 6.0 0.0 0.00 0.00 0.00 82 1016.0
20260505180317 48 160 6.0 0.0 0.00 0.00 0.00 82 1016.0
20260505174814 50 140 7.0 0.0 0.00 0.00 0.00 82 1015.0
20260505173317 50 140 7.0 0.0 0.00 0.00 0.00 82 1015.0
20260505171817 52 130 7.0 0.0 0.00 0.00 0.00 82 1015.0
20260505170317 52 130 7.0 0.0 0.00 0.00 0.00 82 1015.0
20260505164817 55 120 9.0 0.0 0.00 0.00 0.00 67 1015.0
20260505163317 55 120 9.0 0.0 0.00 0.00 0.00 67 1015.0
20260505161818 57 130 9.0 0.0 0.00 0.00 0.00 63 1015.0
20260505160317 57 130 9.0 0.0 0.00 0.00 0.00 63 1015.0
20260505153317 59 130 10.0 0.0 0.00 0.00 0.00 59 1015.0
20260505151825 61 120 10.0 0.0 0.00 0.00 0.00 55 1016.0
20260505150317 61 120 10.0 0.0 0.00 0.00 0.00 55 1016.0
20260505140317 63 120 11.0 0.0 0.00 0.00 0.00 42 1016.0
20260505124817 63 120 11.0 0.0 0.00 0.00 0.00 45 1016.0
20260505123317 63 120 11.0 0.0 0.00 0.00 0.00 45 1016.0
20260505121817 64 110 10.0 0.0 0.00 0.00 0.00 43 1016.0
20260505120323 64 120 13.0 0.0 0.00 0.00 0.00 43 1016.0
20260505114824 64 120 13.0 0.0 0.00 0.00 0.00 43 1016.0
20260505113348 64 120 13.0 0.0 0.00 0.00 0.00 43 1016.0
20260505111817 64 120 11.0 0.0 0.00 0.00 0.00 43 1016.0
20260505110317 64 120 11.0 0.0 0.00 0.00 0.00 43 1016.0
20260505101818 64 110 11.0 0.0 0.00 0.00 0.00 40 1016.0
20260505100317 64 110 11.0 0.0 0.00 0.00 0.00 40 1016.0
20260505094818 66 60 7.0 0.0 0.00 0.00 0.00 37 1016.0
20260505093317 66 60 7.0 0.0 0.00 0.00 0.00 37 1016.0
20260505091817 66 50 3.0 0.0 0.00 0.00 0.00 43 1016.0
20260505090317 66 50 3.0 0.0 0.00 0.00 0.00 43 1016.0
20260505084817 64 70 5.0 0.0 0.00 0.00 0.00 40 1016.0
20260505083317 64 70 5.0 0.0 0.00 0.00 0.00 40 1016.0
20260505081817 64 50 5.0 0.0 0.00 0.00 0.00 46 1016.0
20260505080317 64 50 5.0 0.0 0.00 0.00 0.00 46 1016.0
20260505074833 63 50 5.0 0.0 0.00 0.00 0.00 45 1016.0
20260505073317 63 50 5.0 0.0 0.00 0.00 0.00 45 1016.0
20260505071817 63 50 5.0 0.0 0.00 0.00 0.00 45 1016.0
20260505070317 63 50 5.0 0.0 0.00 0.00 0.00 45 1016.0
20260505064817 63 40 5.0 0.0 0.00 0.00 0.00 42 1016.0
20260505063317 63 40 5.0 0.0 0.00 0.00 0.00 42 1016.0
20260505061817 61 30 6.0 0.0 0.00 0.00 0.00 42 1016.0
20260505060317 61 30 6.0 0.0 0.00 0.00 0.00 42 1016.0
20260505054817 57 330 3.0 0.0 0.00 0.00 0.00 59 1016.0
20260505053317 57 330 3.0 0.0 0.00 0.00 0.00 59 1016.0
20260505051817 54 320 5.0 0.0 0.00 0.00 0.00 58 1016.0
20260505050317 54 320 5.0 0.0 0.00 0.00 0.00 58 1016.0
20260505040316 43 320 7.0 0.0 0.00 0.00 0.00 81 1015.0
20260505034817 41 320 6.0 0.0 0.00 0.00 0.00 76 1015.0
20260505033317 41 320 6.0 0.0 0.00 0.00 0.00 76 1015.0
20260505031817 45 360 6.0 0.0 0.00 0.00 0.00 66 1015.0
20260505030317 45 360 6.0 0.0 0.00 0.00 0.00 66 1015.0
20260505024817 43 350 7.0 0.0 0.00 0.00 0.00 66 1015.0
20260505023317 43 350 7.0 0.0 0.00 0.00 0.00 66 1015.0
20260505021817 43 360 6.0 0.0 0.00 0.00 0.00 71 1015.0
20260505020317 43 360 6.0 0.0 0.00 0.00 0.00 71 1015.0
20260505014816 41 360 3.0 0.0 0.00 0.00 0.00 76 1015.0
20260505013317 41 360 3.0 0.0 0.00 0.00 0.00 76 1015.0
20260505011817 41 330 5.0 0.0 0.00 0.00 0.00 76 1015.0
20260505010317 41 330 5.0 0.0 0.00 0.00 0.00 76 1015.0
20260505004817 45 330 5.0 0.0 0.00 0.00 0.00 66 1015.0
20260505003317 45 330 5.0 0.0 0.00 0.00 0.00 66 1015.0
20260505001817 43 320 7.0 0.0 0.00 0.00 0.00 71 1015.0
20260505000317 43 320 7.0 0.0 0.00 0.00 0.00 71 1015.0
20260504234817 45 330 6.0 0.0 0.00 0.00 0.00 66 1015.0
20260504233317 45 330 6.0 0.0 0.00 0.00 0.00 66 1015.0
20260504231817 45 320 6.0 0.0 0.00 0.00 0.00 66 1015.0
20260504230317 45 320 6.0 0.0 0.00 0.00 0.00 66 1015.0
20260504224817 46 300 7.0 0.0 0.00 0.00 0.00 66 1015.0
20260504223317 46 300 7.0 0.0 0.00 0.00 0.00 66 1015.0
20260504221840 46 290 9.0 0.0 0.00 0.00 0.00 66 1015.0
20260504220317 46 290 9.0 0.0 0.00 0.00 0.00 66 1015.0
20260504214817 45 300 7.0 0.0 0.00 0.00 0.00 71 1015.0
20260504213333 45 300 7.0 0.0 0.00 0.00 0.00 71 1015.0
20260504211817 45 290 7.0 0.0 0.00 0.00 0.00 76 1015.0
20260504210317 45 290 7.0 0.0 0.00 0.00 0.00 76 1015.0
20260504204817 45 290 8.0 0.0 0.00 0.00 0.00 76 1016.0
20260504203318 45 290 8.0 0.0 0.00 0.00 0.00 76 1016.0
20260504201817 46 290 8.0 0.0 0.00 0.00 0.00 71 1015.0
20260504200317 46 290 8.0 0.0 0.00 0.00 0.00 71 1015.0
20260504194817 46 290 7.0 0.0 0.00 0.00 0.00 71 1015.0
20260504193317 46 290 7.0 0.0 0.00 0.00 0.00 71 1015.0
20260504191817 46 280 7.0 0.0 0.00 0.00 0.00 71 1015.0
20260504190317 46 280 7.0 0.0 0.00 0.00 0.00 71 1015.0
20260504184817 48 2.0 0.0 0.00 0.00 0.00 66 1015.0
20260504183327 48 2.0 0.0 0.00 0.00 0.00 66 1015.0